Location: Erba
(45.8000°N, 9.2500°E)
Time: 10:34:43
(UTC+02:00)

ISS - Pass Details

Date: 06 July 2020
Orbit: 417 x 420 km, 51.6° (Epoch: 02 July)

Event Time Altitude Azimuth Distance (km) Brightness Sun altitude
Exits shadow 01:50:20 13° 90° (E) 1,321 -1.2 -21.3°
Drops below altitude 10° 01:50:52 10° 84° (E) 1,495 -0.8 -21.3°
Sets 01:53:14 0° 69° (ENE) 2,361 0.4 -21.3°
